Location: Berlin
(38.3226°N, 75.2177°W)
Time: 05:59:30
(UTC+00:00)

Lacrosse 4 Rocket - Pass Details

Date: 26 October 2020
Orbit: 541 x 617 km, 68.0° (Epoch: 26 November)

Event Time Altitude Azimuth Distance (km) Brightness Sun altitude
Exits shadow 08:56:57 19° 27° (NNE) 1,335 3.6 -28.9°
Drops below altitude 10° 08:58:09 10° 27° (NNE) 1,809 4.3 -28.6°
Sets 09:00:21 0° 27° (NNE) 2,709 5.3 -28.2°
